User: anonymous   Login
Location: Unspecified
(0.0000°N, 0.0000°E)
Time: 10:40:03
(UTC+00:00)
Language:

CUBERRT - Orbit

View from above orbital plane
View from above orbital plane
View from above satellite
View from above satellite

Ground track
Ground track

The orbit data is extracted from the following two-line orbital elements,

1 43546U 98067NU  19107.89288273 +.00026729 +00000-0 +30067-3 0  9992
2 43546 051.6374 291.8368 0005276 257.3293 102.7112 15.62372099043328
Epoch (UTC): 17 April 2019 21:25:45
Eccentricity: 0.0005276
inclination: 51.6374°
perigee height: 377 km
apogee height: 384 km
right ascension of ascending node: 291.8368°
argument of perigee: 257.3293°
revolutions per day: 15.62372099
mean anomaly at epoch: 102.7112°
orbit number at epoch: 4332

The dashed part of the orbit path shows where the satellite is in the earth's shadow,  

DLR